sat.trackr.live / text

‹ back to catalog

JASON-3

NORAD 41240 · 2016-002A

PAYLOAD ACTIVE UNKNOWN

§ Identity

Operator
Country
US
Launch date
2016-01-17
Launch site
AFWTR
Launch vehicle
Mass (kg)
RCS (m²)
2.71

Purposes: earth_obs

External: N2YO · Heavens-Above · Gunter

§ Orbital elements

Epoch: 2026-09-20T03:33:39.432384Z

Period
111.83 min
Inclination
66.0403°
Eccentricity
0.0008622
Mean motion
12.87627598 rev/d
Perigee alt
1,304.3 km
Apogee alt
1,317.6 km
Semi-major
7,689.1 km
B*
6.9310e-5
RAAN
286.1889°
Arg perigee
267.1574°
Mean anomaly
92.8458°
Rev number
49,947

§ Raw data

JASON-31 41240U 16002A   26263.14837306 -.00000045  00000+0  69310-4 0  99932 41240  66.0403 286.1889 0008622 267.1574  92.8458 12.87627598499478

JSON: /api/v1/satellites/41240 · /tle

For live sub-satellite position, see the globe view (requires WebGL).

§ Visibility from observer

Set your observer location to see the next 7 days of passes ≥ 10°. The values pass through the URL so the page stays shareable.

No JS? Fill the form by hand. The geolocation button needs JavaScript.

§ Radio — SatNOGS DB

ModeDescriptionDownlinkUplink
FSK Mode S - TM 2215.92 MHz, 2000 kHz, RHCP & LHCP, 838.861 Kbps 2.216 GHz

1 transmitter · refreshed weekly from db.satnogs.org